Weather Roundup
Issued by NWS

Home | Current Version | Previous Version | Graphics & Text | Print | Product List | Glossary Off
Versions: 1 2 3 4 5 6 7 8 9 10 11 12 13 14 15 16 17 18 19 20 21 22 23 24 25 26 27 28 29 30 31 32 33 34 35 36 37 38 39 40 41 42 43 44 45 46 47 48 49 50

000
NZUS93 KARX 210459
HRRWXR

CURRENT HOURLY OBSERVATIONS ACROSS
MUCH OF THE UPPER MISSISSIPPI VALLEY
NATIONAL WEATHER SERVICE LA CROSSE WI
1200 AM CDT THU AUG 21 2014


...SOUTHEAST MINNESOTA...


CITY           SKY/WX    TMP DP  RH WIND       PRES   REMARKS
ROCHESTER      MOCLDY    69  66  90 S7        29.90S
ROCHESTER/MAYO CLOUDY    71  67  85 SE6       29.90R
WINONA         PTCLDY    72  66  83 SE7       29.89F
AUSTIN         MOCLDY    66  66 100 SE5       29.89S
ALBERT LEA     MOCLDY    70  66  88 SE5       29.88S
DODGE CENTER   MOCLDY    70  66  88 SE5       29.89F
PRESTON        PTCLDY    68  68 100 CALM      29.92R
OWATONNA       MOCLDY    72  66  83 SE6       29.88S
FARIBAULT      MOCLDY    73  66  78 CALM      29.87S
$$

...ELSEWHERE IN MINNESOTA...


CITY           SKY/WX    TMP DP  RH WIND       PRES   REMARKS
MINNEAPOLIS    MOCLDY    72  65  78 E12       29.87S
INTNL FALLS    CLEAR     56  55  97 CALM      29.90R
DULUTH         CLOUDY    62  59  90 E9        29.94S
RED WING       MOCLDY    72  64  78 E7        29.87S
REDWOOD FALLS  PTCLDY    73  69  87 SE10      29.80F
MANKATO        MOCLDY    72  64  78 E8        29.85S
WORTHINGTON    MOCLDY    70  12  11 SE8       29.80F
FAIRMONT       CLOUDY    70  64  83 SE8       29.83F
$$

...SOUTHWEST WISCONSIN...


CITY           SKY/WX    TMP DP  RH WIND       PRES   REMARKS
LA CROSSE      PTCLDY    73  67  81 E8        29.90R
PRAIRIE DU CHI MOCLDY    69  66  91 SE5       29.90S
BOSCOBEL       PTCLDY    68  66  93 CALM      29.92S
LONE ROCK      NOT AVBL
PLATTEVILLE    PTCLDY    68  66  94 SE5       29.94S
FORT MC COY    MOCLDY    69  63  82 E3        29.93S
CAMP DOUGLAS   FOG       63  63 100 E2        29.95R VSB 3/4
VIROQUA        FAIR      68  68 100 SE5       29.94S
WIS DELLS      MOCLDY    69  64  83 CALM      29.95R
$$

...ELSEWHERE IN WISCONSIN...


CITY           SKY/WX    TMP DP  RH WIND       PRES   REMARKS
MILWAUKEE      MOCLDY    68  64  87 E5        29.96R
MADISON        MOCLDY    71  67  87 NE3       29.94R
GREEN BAY      PTCLDY    62  61  96 CALM      29.96R
EAU CLAIRE     NOT AVBL
BLACK RVR FLS  FAIR      66  65  98 CALM      29.92S
MEDFORD        MOCLDY    59  59 100 E6        29.96S
WAUSAU         PTCLDY    62  60  93 CALM      29.95S
WIS RAPIDS     PTCLDY    64  62  93 SE3       29.96S
MARSHFIELD     PTCLDY    64  61  90 E3        29.95S
RICE LAKE      PTCLDY    64  61  89 E6        29.94F
$$

...NORTHEAST IOWA...


CITY           SKY/WX    TMP DP  RH WIND       PRES   REMARKS
WATERLOO       PTCLDY    69  67  93 SE8       29.89R
DUBUQUE        PTCLDY    69  66  90 SE3       29.95R
DECORAH        PTCLDY    68  68 100 SE6       29.90S
MASON CITY     CLOUDY    68  67  96 SE7       29.89F
CHARLES CITY   MOCLDY    70  66  88 E6        29.91R
OELWEIN        MOCLDY    70  68  94 SE8       29.92S
$$

...ELSEWHERE IN IOWA...


CITY           SKY/WX    TMP DP  RH WIND       PRES   REMARKS
DES MOINES     PTCLDY    77  73  87 SE6       29.85R
IOWA CITY      CLEAR     71  70  96 CALM      29.92R
FORT DODGE     PTCLDY    72  70  94 SE7       29.85S
MARSHALLTOWN   CLEAR     71  70  96 SE8       29.87S
CEDAR RAPIDS   CLEAR     68  68 100 E5        29.91R
$$

...NORTHERN ILLINOIS...


CITY           SKY/WX    TMP DP  RH WIND       PRES   REMARKS
CHICAGO-OHARE  CLOUDY    75  65  70 CALM      29.95S
DUPAGE         CLOUDY    72  67  84 S3        29.96S
CHICAGO-MIDWAY CLOUDY    77  67  71 SW8       29.95S
MOLINE         CLEAR     71  69  93 E7        29.92S
ROCKFORD       MOCLDY    71  67  87 E3        29.96S
STERLING       MOCLDY    70  66  88 SE5       29.96R
PEORIA         PTCLDY    75  70  84 S6        29.95R
$$

NOTE: "FAIR" INDICATES FEW OR NO CLOUDS BELOW 12,000 FEET WITH NO
SIGNIFICANT WEATHER AND/OR OBSTRUCTIONS TO VISIBILITY. WIND
SPEEDS ARE IN MILES-PER-HOUR.



USA.gov is the U.S. government's official web portal to all federal, state and local government web resources and services.